Wind_Speed
15 17 18 20 22 23 23 24 24 23 23 23 21 20 18 15 13 11 10 11 12 13 14 15 16 16 17 17 17 16 15 13 12 11 11 11 11 11 11 11 11 11 11 12 12 12 13 13 13 13 13 13 13 13 13 13 14 14 14 14 14 14 14 14 14 15 15 15 15 15 16 16 16 16 16 16 16 17 17 17 17 17 18 18 18 18
13 14 15 17 18 19 20 20 20 20 19 18 16 15 13 12 11 11 11 12 13 13 14 15 16 17 17 17 16 15 13 12 11 11 11 11 11 11 11 11 11 11 12 12 12 13 13 13 13 13 13 13 13 13 13 13 13 13 13 14 14 14 14 14 14 15 15 15 15 16 16 16 16 16 16 17 17 17 17 17 18 18 18 18 18 19
13 13 14 15 16 16 16 16 16 16 15 13 12 11 10 10 11 12 12 13 13 14 15 15 16 16 16 16 15 13 12 11 10 10 10 10 11 11 11 11 12 12 12 13 13 13 13 13 13 13 13 13 13 13 13 13 13 13 13 13 14 14 14 14 15 15 15 15 16 16 16 16 17 17 17 17 17 18 18 18 18 18 19 19 19 19
13 13 14 14 14 14 14 13 12 12 11 10 10 10 10 11 12 12 13 13 14 14 14 15 15 15 15 14 13 12 11 10 10 10 10 10 11 11 11 12 12 12 12 12 13 13 13 12 12 12 12 12 12 12 12 13 13 13 13 14 14 14 14 15 15 15 15 16 16 16 17 17 17 17 17 18 18 18 18 18 19 19 19 20 20 20
12 13 14 13 12 12 12 12 11 10 10 10 10 11 11 12 12 13 13 13 13 14 14 14 13 13 13 12 11 10 10 10 10 10 10 10 11 11 11 12 12 12 12 12 12 12 12 12 12 12 12 12 12 12 12 13 13 13 14 14 14 15 15 15 15 16 16 16 16 16 17 17 17 18 18 18 18 19 19 19 19 20 20 20 20 21
12 13 14 13 13 12 12 12 11 11 11 12 12 12 12 12 12 13 13 13 13 13 13 12 12 12 11 11 10 10 9 9 9 9 10 10 11 12 12 12 12 12 12 12 12 11 11 11 11 11 11 11 12 12 12 13 13 14 14 14 15 15 15 15 16 16 16 16 16 16 17 17 17 18 18 18 18 19 19 19 19 20 20 20 21 21
12 12 13 13 13 12 11 12 12 12 12 12 11 11 11 12 12 13 13 13 12 12 12 12 11 11 10 10 9 9 8 9 9 10 11 12 13 14 14 13 13 12 12 12 11 11 11 11 11 11 11 11 12 12 12 13 13 14 14 14 14 14 15 15 15 15 15 16 16 16 17 17 17 18 18 18 18 18 19 19 19 19 20 20 20 21
11 11 12 12 12 11 11 11 11 11 11 11 11 11 12 12 13 13 13 12 12 12 11 11 11 10 9 8 8 8 8 9 10 12 13 15 16 15 14 12 12 11 11 11 11 11 11 11 11 11 11 11 11 12 12 13 13 13 14 14 14 14 14 14 14 15 15 15 16 16 16 17 17 17 17 18 18 18 18 19 19 19 19 20 20 20
10 10 11 12 12 12 11 11 11 10 10 11 11 12 13 13 13 12 12 11 11 11 10 10 10 9 8 7 7 8 9 10 12 13 15 16 15 14 12 11 10 10 11 11 11 11 11 10 10 10 11 11 11 12 13 13 14 14 14 14 14 14 14 14 14 14 15 15 15 16 16 16 16 17 17 17 18 18 18 18 19 19 19 20 20 20
10 10 11 11 11 11 11 11 11 11 11 11 12 12 12 12 12 12 11 11 10 9 9 9 8 8 7 7 8 9 10 12 14 15 16 15 12 10 9 9 9 9 10 10 10 10 10 10 10 10 11 12 13 13 14 14 14 14 14 13 13 13 14 14 14 14 14 14 15 15 15 16 16 16 17 17 17 18 18 18 19 19 19 20 20 21
9 10 10 10 10 10 11 11 10 10 11 11 12 12 11 11 11 11 11 11 10 8 8 7 7 7 7 8 9 11 12 14 16 16 14 11 9 7 7 7 8 9 9 10 10 10 11 11 11 12 13 14 14 14 14 14 14 14 14 14 14 14 14 14 14 14 14 14 14 15 15 15 16 16 16 17 17 18 18 19 19 19 20 20 21 21
8 8 9 9 9 10 10 10 9 9 10 11 11 11 12 11 11 11 11 11 9 7 7 7 7 8 8 9 11 12 14 15 16 15 12 9 7 6 7 8 9 10 11 11 12 13 13 14 15 15 16 16 16 15 15 14 14 14 14 13 13 13 13 14 14 14 14 14 14 15 15 16 16 16 17 17 18 18 19 19 20 20 20 21 21 22
7 8 8 9 9 8 8 8 8 8 9 10 10 11 12 11 10 10 9 8 7 6 6 7 8 9 9 10 11 13 14 15 14 12 10 9 9 9 10 10 11 12 13 14 15 15 16 17 17 17 17 16 15 14 14 13 13 12 12 12 13 13 13 14 14 14 14 15 15 15 16 16 17 17 18 18 19 19 20 20 21 21 21 22 22 22
8 9 9 9 8 8 7 7 7 8 8 9 10 10 9 8 8 7 7 6 6 6 7 7 8 9 10 10 11 12 13 13 12 11 11 11 11 11 12 13 14 15 15 16 17 17 16 16 16 15 14 14 13 12 12 11 11 11 12 12 13 13 14 14 14 15 15 15 16 16 17 17 18 18 19 19 20 20 21 21 22 22 22 22 23 23
9 9 8 8 7 7 6 7 7 8 8 8 8 8 7 6 6 6 6 6 6 7 8 9 10 11 10 10 10 11 11 11 11 12 13 13 13 13 14 15 17 17 17 18 18 17 15 15 14 13 13 12 12 11 11 11 11 12 13 13 14 14 14 15 15 15 16 16 17 17 18 18 19 19 20 20 21 21 22 22 22 23 23 23 23 24
9 9 8 7 6 5 5 5 5 5 6 6 6 5 5 5 5 5 6 6 6 7 8 9 10 10 10 9 10 10 10 10 12 13 14 15 15 15 16 17 18 19 19 19 18 17 15 14 13 13 13 12 12 11 11 12 12 13 14 14 14 15 15 15 15 16 16 17 17 18 18 19 19 20 20 21 21 22 22 22 22 23 23 24 24 25
8 7 6 5 5 4 4 4 4 4 4 4 4 5 5 5 5 5 5 6 6 7 7 8 7 7 8 10 11 11 11 11 13 14 16 16 17 17 17 17 19 20 20 19 18 17 16 15 14 13 13 13 12 12 12 13 13 14 14 15 15 15 15 15 15 16 16 17 17 18 19 19 20 20 21 21 21 22 22 22 23 23 23 24 25 25
7 6 5 4 3 3 4 4 4 4 5 5 5 5 6 6 6 6 6 6 6 6 6 7 7 7 8 9 11 11 12 12 14 16 17 18 18 18 18 18 19 20 20 20 19 17 17 16 15 14 14 14 13 13 13 14 14 14 15 15 15 15 15 15 16 16 16 17 18 18 19 19 20 20 21 21 22 22 22 23 23 23 23 23 24 24
5 4 3 3 3 4 4 5 5 5 5 5 5 6 5 6 6 6 6 7 7 7 7 8 8 9 10 11 12 13 12 13 15 17 19 19 19 19 19 18 18 19 20 20 19 18 17 16 15 15 15 15 14 14 14 14 15 15 15 15 16 16 16 16 16 17 17 18 18 19 19 19 20 20 21 21 21 22 22 22 23 23 23 23 23 23
3 2 2 2 3 3 3 4 4 4 4 5 6 6 6 6 6 7 7 8 8 8 9 9 9 10 11 11 12 12 12 14 16 18 19 19 20 19 19 18 18 18 19 20 19 18 17 16 16 16 16 16 16 16 15 15 15 15 16 16 16 16 16 16 17 17 18 18 18 18 19 19 19 20 20 20 21 21 22 22 22 22 23 23 23 24
2 2 2 3 3 3 3 3 3 4 4 5 6 6 6 7 7 8 8 9 9 9 9 9 10 11 12 12 13 14 15 16 17 18 18 18 19 19 18 17 17 18 19 19 18 18 17 17 17 17 17 18 17 17 16 16 16 16 16 16 16 17 17 17 17 18 18 18 18 18 18 19 19 19 20 20 21 21 21 22 22 22 22 22 23 23
4 4 4 4 4 4 4 4 4 5 5 6 6 7 7 8 8 8 9 9 9 10 10 11 12 13 14 15 16 17 17 17 18 18 17 16 18 18 17 15 15 16 18 18 18 18 18 18 18 19 19 19 18 18 17 17 17 17 16 16 17 17 17 17 18 18 17 17 17 18 18 19 19 20 20 21 21 21 21 22 22 22 22 23 23 23
5 5 5 5 6 6 6 6 6 7 7 8 8 9 9 9 9 9 9 9 9 10 11 12 14 15 15 16 17 17 18 17 16 16 14 13 14 16 16 15 15 16 17 18 19 19 20 20 20 20 20 20 19 18 18 17 17 16 16 17 17 17 17 17 17 17 17 17 17 18 19 19 20 20 21 21 21 21 21 21 21 21 22 22 22 23
6 6 6 6 7 7 8 8 8 9 9 10 10 11 11 11 11 11 11 11 11 12 13 14 15 16 16 16 16 16 16 14 13 12 12 12 14 15 15 15 16 17 19 20 20 20 21 22 22 21 20 20 19 18 17 17 16 16 16 16 17 17 16 16 16 17 17 18 19 19 20 20 20 20 20 20 20 20 20 20 20 21 21 21 22 22
6 6 7 7 8 8 9 9 9 10 10 11 11 12 12 12 12 12 12 12 12 13 13 14 14 15 14 14 13 13 13 12 10 10 12 12 14 15 15 15 16 18 19 21 21 21 21 22 22 22 21 20 19 18 17 16 16 15 15 15 15 15 15 16 16 17 19 19 20 20 20 20 20 20 19 19 19 19 19 20 20 20 21 21 22 22
5 6 6 6 7 7 8 8 9 9 10 11 11 12 12 12 12 13 13 13 12 12 12 12 12 13 13 13 12 12 12 10 9 10 11 12 14 16 16 16 16 17 19 21 21 20 20 21 22 21 20 19 18 16 15 14 13 13 13 13 14 15 16 17 19 20 21 21 21 20 20 20 19 19 19 19 19 19 20 20 20 20 21 21 22 22
4 4 5 5 6 7 7 8 9 9 10 10 11 11 11 12 12 12 12 12 12 11 10 10 10 11 12 12 12 12 12 11 10 10 12 13 14 15 16 16 16 17 19 20 20 20 20 20 21 20 19 17 15 13 12 11 11 11 12 13 15 17 19 20 21 22 21 20 20 19 19 19 19 19 20 19 19 19 20 20 20 20 21 21 21 21
5 6 6 7 7 8 8 9 9 9 10 10 10 10 10 11 11 11 11 11 11 11 10 10 10 9 10 10 11 12 13 12 12 12 12 13 13 13 15 15 15 16 18 20 21 21 20 19 18 18 16 14 12 10 10 10 11 12 14 17 19 20 21 22 21 21 20 19 19 19 19 19 19 20 20 20 20 20 20 20 20 20 20 20 20 20
8 9 10 10 11 11 11 11 11 10 10 10 10 10 10 10 11 12 12 12 11 11 11 11 11 10 10 11 13 13 13 12 11 10 10 11 11 12 14 14 15 16 18 20 21 21 18 16 14 13 12 11 10 10 11 13 15 17 19 21 22 22 21 20 20 19 19 19 19 19 20 20 20 20 20 20 20 20 20 20 20 20 20 20 20 21
12 13 14 14 14 14 13 12 11 11 10 10 10 10 10 10 11 12 12 12 12 12 12 12 12 11 11 11 11 10 10 9 7 6 8 9 10 12 13 14 15 16 16 16 15 14 15 15 13 10 10 11 12 14 16 18 19 21 22 22 21 21 20 19 19 19 19 19 20 20 20 20 20 20 20 20 20 20 20 20 20 20 20 20 21 21
16 17 17 16 15 13 12 11 10 10 10 10 10 10 11 11 11 12 12 12 12 12 13 12 12 12 11 9 6 4 5 7 7 7 9 10 11 12 14 14 15 15 13 11 9 7 9 13 13 12 12 14 17 19 20 21 21 21 21 21 21 20 20 19 19 19 20 20 20 20 20 20 20 20 20 20 20 20 20 20 19 19 20 20 21 21
18 18 17 16 14 12 11 11 11 11 11 11 11 11 11 11 11 11 11 12 12 13 13 13 13 12 12 11 8 7 8 10 10 10 10 11 12 13 14 13 13 13 12 11 9 7 5 9 14 18 18 19 20 21 21 20 20 19 20 20 21 21 21 20 20 20 21 21 21 21 21 21 21 21 21 21 20 20 20 19 19 19 19 19 20 21
18 18 16 14 13 12 12 12 12 12 12 11 11 10 10 9 10 10 11 11 11 12 13 13 13 13 13 13 13 14 14 14 13 11 10 11 12 12 13 12 13 13 13 13 12 11 10 13 17 21 23 22 21 20 20 20 19 19 19 20 21 22 22 21 21 22 23 23 23 23 22 22 22 22 21 21 20 20 19 19 18 18 18 19 20 21
18 17 16 14 13 12 12 12 12 12 11 10 9 9 8 8 8 9 10 10 11 11 12 13 13 14 14 13 14 15 16 15 13 11 10 11 11 12 13 13 13 14 14 14 13 13 14 16 18 19 21 23 22 21 20 19 19 19 19 20 21 22 23 23 23 23 24 24 24 24 24 24 23 23 22 21 21 20 19 19 19 19 19 19 20 21
17 16 15 13 13 13 13 12 11 10 9 8 8 8 7 7 8 8 8 9 10 10 11 12 13 14 14 14 14 14 15 15 13 12 11 12 13 13 14 14 14 13 13 13 13 13 14 16 17 18 18 21 22 22 20 19 19 19 20 21 22 23 23 24 24 24 24 24 25 25 25 25 24 24 23 23 22 21 20 20 20 20 20 21 21 21
16 15 14 13 13 13 12 11 10 8 8 7 7 7 6 6 6 7 7 8 9 10 10 11 12 13 14 15 15 16 17 17 16 15 14 14 14 15 15 15 14 14 13 14 14 14 14 16 17 18 18 18 20 21 20 20 19 20 21 22 22 23 23 23 23 23 24 24 24 24 24 24 24 24 24 24 23 22 21 21 22 22 22 22 21 21
15 14 14 13 13 13 12 10 9 8 7 7 7 7 7 7 7 7 8 9 10 10 11 12 13 14 15 16 17 18 19 19 18 18 17 16 16 17 16 17 16 15 14 14 15 15 16 16 17 18 17 17 17 18 20 22 22 22 23 23 23 23 23 23 22 22 22 23 24 24 24 24 24 25 25 24 24 23 24 24 24 23 22 22 21 21
14 14 14 13 12 11 10 10 9 8 8 8 8 8 9 9 10 10 11 11 12 13 14 15 16 17 17 18 19 19 20 20 20 20 19 19 19 19 19 19 19 18 17 16 16 17 16 16 15 15 16 17 18 19 21 22 22 23 23 24 23 23 23 22 21 21 21 22 23 24 24 24 25 25 26 26 26 26 26 25 25 24 23 23 22 22
13 13 13 12 11 10 9 9 9 9 9 9 9 10 10 11 11 12 13 13 14 15 16 17 17 17 17 17 18 18 19 19 20 20 20 20 20 20 20 20 20 19 19 19 18 18 17 17 16 15 15 17 19 21 21 21 21 22 24 24 24 23 21 20 20 20 21 22 24 25 25 25 25 25 26 26 25 25 25 25 25 24 24 24 24 24
12 12 12 11 10 8 8 9 9 9 9 10 10 10 11 11 12 12 13 13 13 14 14 14 15 15 16 16 16 17 18 18 19 19 19 19 19 20 20 21 21 20 20 20 19 19 18 18 18 19 19 18 19 21 22 22 22 22 22 22 22 22 22 21 21 21 22 23 23 24 25 25 25 25 25 25 24 24 24 25 25 25 25 24 24 24
11 11 10 9 8 8 8 9 9 9 10 10 10 11 11 11 12 12 13 13 13 13 13 14 14 15 16 16 17 17 17 17 18 18 18 18 18 19 20 20 21 21 20 20 19 19 19 19 19 20 20 20 21 22 23 23 22 22 21 21 22 24 24 24 22 22 22 22 22 23 23 24 24 24 24 25 25 25 25 25 26 26 26 25 24 23
10 10 9 9 8 8 9 9 9 9 10 10 11 11 11 11 12 13 13 14 14 14 14 14 14 15 16 17 16 16 16 16 16 16 16 16 16 17 18 19 20 20 20 20 20 20 19 19 20 20 21 20 21 21 22 23 23 22 22 22 23 25 25 24 22 20 20 21 22 22 23 24 24 25 25 25 26 26 26 26 26 26 25 24 24 24
9 9 9 9 9 9 9 9 9 10 11 11 11 12 12 12 12 13 13 14 14 14 14 14 14 15 16 16 17 17 16 16 15 15 15 15 15 15 16 17 18 19 19 20 20 19 20 20 20 20 21 21 21 21 23 24 24 23 23 22 22 22 20 22 22 21 21 22 22 23 23 24 25 26 26 26 26 26 26 26 25 25 24 24 24 24
9 9 9 9 9 8 9 9 10 10 11 11 12 12 12 12 12 12 13 13 14 14 14 14 15 15 15 16 16 17 17 16 15 14 14 14 14 14 15 15 16 17 18 19 19 19 19 20 20 20 20 20 21 22 23 23 24 24 23 22 22 21 21 23 24 24 24 24 24 24 24 25 25 26 26 26 26 26 25 25 24 24 24 24 24 24
8 8 8 8 8 8 9 9 10 11 11 12 12 12 12 12 11 12 12 13 14 14 14 14 14 14 14 15 15 16 16 16 15 14 14 13 13 13 14 15 15 16 18 19 20 20 20 20 20 21 21 20 21 22 23 23 24 24 24 23 22 22 24 25 25 24 24 24 24 24 25 25 26 26 26 26 25 25 24 24 24 24 24 24 24 24
7 7 7 8 8 9 10 10 11 11 12 13 13 12 12 12 12 12 12 13 14 14 14 14 13 13 13 14 15 16 16 16 16 16 15 14 14 14 14 15 15 16 18 19 20 21 22 22 22 22 21 21 21 23 23 23 23 23 24 24 23 23 24 25 24 24 24 24 24 25 25 26 25 25 24 25 25 25 24 24 23 23 24 23 23 23
8 8 9 9 10 10 11 11 12 12 13 13 13 12 12 12 12 13 13 13 13 14 13 13 13 13 13 14 15 15 16 17 17 17 16 16 16 16 16 16 17 17 18 20 21 22 23 24 25 24 23 22 22 23 24 23 23 23 24 24 23 23 23 24 24 24 23 24 24 25 26 25 25 24 24 25 25 24 24 23 22 22 22 22 21 22
8 9 9 10 10 11 12 12 12 12 13 13 13 13 13 13 13 13 13 13 13 13 12 13 13 13 14 15 15 15 16 16 17 18 17 17 17 17 17 17 18 18 19 20 21 22 24 25 26 27 26 24 23 23 24 23 23 23 23 23 23 23 24 25 25 24 23 24 25 26 26 25 24 23 24 25 25 25 24 23 22 21 21 21 22 23
9 9 10 10 11 12 12 12 12 12 13 13 14 14 14 14 13 12 13 13 13 13 13 13 13 14 15 15 15 16 16 17 17 18 18 18 17 17 17 18 18 19 19 20 21 22 23 24 25 25 26 26 25 25 25 24 24 23 23 23 22 23 23 24 25 24 24 24 25 26 26 25 24 23 23 23 24 24 24 23 23 23 23 23 24 25
9 10 10 11 12 12 13 13 13 13 13 14 14 15 15 15 14 14 14 14 14 14 14 14 14 14 15 15 16 16 16 17 17 18 18 18 17 17 18 18 18 18 18 18 18 18 19 19 20 21 22 23 24 25 25 25 24 24 23 23 22 23 23 24 24 24 24 24 24 24 24 24 23 22 21 21 22 23 24 24 24 24 24 24 24 25
10 11 11 12 13 13 13 13 13 13 13 14 14 15 15 15 14 14 13 13 14 14 14 14 15 15 15 16 16 17 17 17 17 17 18 18 17 17 17 17 17 16 15 15 15 15 15 14 15 17 19 18 19 21 23 24 24 24 23 23 23 23 23 23 24 24 24 24 23 23 23 22 21 20 20 20 21 23 24 25 25 25 24 24 24 25
Wind_Direction
202 206 211 214 215 217 221 225 228 229 232 234 233 230 225 220 218 220 225 231 237 242 247 253 259 264 269 274 278 282 284 287 289 292 294 297 298 298 298 296 294 291 289 287 285 284 282 282 281 282 282 283 283 284 284 284 284 284 284 284 284 283 283 283 283 284 283 282 282 282 283 282 281 280 281 281 281 280 281 281 280 280 279 278 277 276
192 198 204 210 213 215 219 224 225 225 225 224 221 216 210 208 212 220 227 232 237 243 248 254 260 266 271 276 280 283 285 288 290 293 296 298 299 299 298 296 294 291 289 286 285 283 282 282 282 282 283 283 284 284 285 285 285 285 285 284 284 284 284 283 283 283 282 283 282 282 282 281 281 281 281 281 281 280 279 279 278 277 277 276 276 275
180 186 194 201 206 208 211 214 215 215 214 212 210 207 208 213 220 226 231 234 239 244 250 257 263 269 274 278 281 284 287 290 292 295 297 300 300 300 298 296 293 290 288 286 284 283 282 283 283 283 283 284 284 285 285 285 286 286 286 285 284 284 284 283 283 282 282 282 281 281 281 281 280 280 280 280 279 279 278 277 277 276 276 275 275 275
173 176 184 190 196 201 205 204 203 204 206 208 210 213 218 223 228 232 234 238 242 249 255 262 268 273 276 280 283 287 291 294 295 297 300 301 301 300 298 296 294 291 289 287 286 285 284 284 284 284 284 285 286 286 287 287 287 287 286 286 285 284 283 282 281 281 280 280 280 280 279 279 279 278 278 278 277 277 277 276 276 276 275 275 274 274
171 174 179 181 186 195 201 201 200 201 206 213 218 222 225 229 233 236 240 244 248 255 262 268 272 275 278 282 287 292 296 297 297 299 300 301 300 299 298 296 294 292 290 288 287 286 286 286 286 286 287 287 288 288 289 289 289 288 287 286 284 283 282 280 280 279 278 278 278 278 278 277 277 277 277 276 276 276 276 276 276 276 276 276 275 275
172 176 179 181 185 192 199 201 202 205 210 217 222 226 230 234 238 241 245 249 255 260 266 270 273 276 280 285 291 295 297 295 295 295 295 295 296 297 297 296 294 292 291 289 288 288 288 289 289 289 289 289 289 290 290 290 290 289 288 286 285 283 282 281 279 279 278 277 277 277 277 277 277 277 276 276 276 276 276 276 276 276 277 277 277 277
173 178 182 185 191 196 202 205 207 209 212 217 222 226 231 235 240 244 248 252 257 262 267 270 272 276 280 286 290 292 289 285 282 282 284 287 290 292 293 293 293 292 292 292 291 291 291 291 291 290 290 290 290 291 291 292 292 292 290 289 288 287 285 283 282 280 279 278 278 277 277 277 277 277 277 277 277 277 277 277 277 277 278 278 278 279
168 178 185 190 194 200 205 208 210 210 212 216 221 226 231 236 240 245 250 254 258 262 266 269 272 276 280 283 283 280 275 273 274 278 283 288 291 291 291 292 293 294 293 293 292 292 291 291 290 290 290 291 292 293 293 294 295 294 292 292 290 289 287 285 283 282 281 279 278 278 277 277 277 277 277 277 277 278 278 278 278 279 279 279 279 279
166 177 187 193 197 201 206 211 212 211 214 218 223 227 232 236 241 246 250 254 259 262 266 269 273 276 278 276 270 267 268 271 278 285 291 295 296 296 294 294 294 293 293 293 293 293 292 291 291 291 291 293 294 295 296 296 295 294 292 292 290 289 287 286 285 283 282 281 280 279 279 279 278 278 278 278 278 279 279 279 279 279 280 279 280 280
176 183 191 197 202 206 209 214 216 217 220 226 230 233 236 238 242 247 251 256 260 263 265 268 272 274 272 268 265 267 272 277 284 291 296 298 299 299 297 295 292 292 294 295 295 294 293 293 293 294 295 297 298 297 298 297 296 294 293 293 292 292 290 289 287 286 284 283 282 281 280 279 279 279 279 279 279 279 279 279 279 280 280 280 280 280
188 194 198 203 209 214 218 220 221 222 225 229 234 237 241 243 246 250 252 258 263 265 263 263 265 268 270 271 274 277 281 287 292 296 297 297 296 296 295 292 290 290 290 289 289 288 289 290 292 295 296 298 298 298 297 296 295 295 294 293 293 292 292 290 289 288 286 284 283 281 281 280 279 279 279 279 279 279 279 279 279 279 280 280 280 280
201 207 211 214 217 219 222 224 225 226 225 226 228 232 238 244 250 254 257 262 265 264 258 255 257 263 270 279 286 289 293 297 300 300 300 299 299 301 299 293 289 286 284 282 280 280 281 284 288 291 293 295 295 296 297 296 296 295 294 293 293 293 292 290 289 287 285 284 282 281 280 280 280 279 279 279 279 279 279 279 280 280 280 280 280 280
215 220 224 226 225 224 223 225 225 224 222 221 224 230 237 243 248 252 257 261 262 258 254 256 262 269 276 284 292 299 303 304 304 304 304 306 308 307 302 296 291 287 285 283 282 282 283 286 289 292 294 297 299 300 300 299 298 297 296 296 294 293 291 289 287 285 284 283 282 281 281 280 280 280 280 280 280 280 280 280 280 280 280 280 280 280
228 230 231 230 229 229 229 230 229 227 225 226 230 234 239 240 240 241 248 252 255 258 263 268 277 284 287 293 299 305 309 309 307 306 305 306 306 305 301 297 294 292 291 291 291 292 294 297 299 301 304 307 308 308 307 306 304 302 299 296 294 291 289 287 286 284 283 282 282 282 282 281 281 281 281 281 281 281 281 281 281 280 280 280 280 280
233 231 229 228 228 229 231 234 237 239 237 234 232 231 232 231 232 236 244 250 259 270 277 283 290 294 294 297 304 311 314 311 308 306 305 304 303 301 300 300 299 298 299 300 302 304 308 311 313 315 316 317 316 314 312 309 306 301 296 293 290 289 287 286 285 284 284 284 283 283 283 283 283 283 283 283 282 282 281 281 280 280 280 279 280 280
233 231 228 227 228 229 231 238 246 249 243 233 228 226 227 232 239 247 254 263 274 284 291 298 303 303 298 299 306 315 317 312 308 305 305 304 302 302 303 304 304 305 306 307 309 314 319 321 321 321 321 320 319 316 312 307 301 296 292 290 289 288 288 287 287 286 286 286 286 285 285 285 285 284 284 284 283 283 282 282 281 280 280 280 280 280
237 234 232 232 233 236 239 247 255 256 248 237 234 236 240 245 253 260 266 274 285 292 296 300 305 306 302 303 308 315 320 315 310 307 306 304 303 303 305 306 305 306 308 310 313 317 321 323 323 322 321 319 317 314 308 300 295 292 291 290 290 290 289 289 289 289 289 289 288 288 288 287 287 286 286 286 285 284 283 283 282 281 281 280 280 280
238 237 237 240 249 255 259 264 267 265 259 252 250 250 253 256 260 267 273 281 291 298 299 300 298 297 299 304 309 315 321 316 311 309 307 304 302 303 305 306 305 305 306 309 313 317 321 321 321 320 318 316 312 307 300 295 293 291 291 291 291 291 292 292 292 292 291 291 290 290 289 289 289 288 288 287 286 285 285 283 283 282 281 280 279 279
235 237 245 256 267 272 274 273 271 268 265 262 259 259 258 261 264 269 276 284 292 298 300 299 297 296 296 298 305 312 316 312 310 310 308 304 302 303 305 306 305 304 305 307 312 316 318 318 317 316 314 312 308 302 298 295 294 293 292 293 293 293 293 293 293 293 293 292 292 291 291 290 290 289 288 288 287 286 285 284 283 282 281 280 280 279
234 239 257 281 291 295 294 284 277 273 271 269 268 267 265 268 271 276 283 289 294 297 297 296 294 294 296 298 303 305 305 305 309 310 306 302 300 302 304 306 305 304 304 306 310 314 315 314 314 312 311 309 306 303 299 297 295 294 293 293 293 294 294 294 294 294 294 294 293 293 292 292 291 291 290 289 288 287 286 285 284 283 282 281 280 279
276 275 275 279 292 307 314 302 290 284 279 279 279 278 277 279 282 285 289 293 295 295 294 291 291 292 295 296 296 297 298 302 307 308 303 300 298 299 303 305 305 303 302 304 308 311 311 310 309 308 307 306 304 302 299 297 296 295 293 293 293 294 294 295 295 295 295 295 295 294 294 294 294 293 292 291 291 289 288 287 285 285 284 283 281 280
289 288 285 282 287 295 298 296 293 290 286 286 288 288 287 289 290 291 291 292 293 292 291 290 291 292 293 292 292 293 295 298 301 302 300 297 295 297 302 306 306 303 301 302 305 308 308 306 305 304 304 304 303 301 300 298 296 295 294 293 293 294 294 295 296 296 296 296 296 296 296 296 296 295 294 292 291 290 289 288 286 285 285 283 283 282
285 281 281 282 281 283 285 289 290 291 290 290 290 290 290 291 292 291 292 292 292 293 294 295 295 294 293 293 293 293 294 296 299 298 294 290 290 295 302 307 306 303 300 301 304 306 306 305 304 304 305 305 304 303 302 299 297 295 294 293 294 294 295 296 297 297 297 297 297 297 297 297 296 295 294 293 291 290 289 288 287 286 285 284 283 282
282 279 278 278 279 280 283 287 291 294 294 293 292 292 292 292 292 292 292 293 293 294 296 297 296 295 294 294 296 297 300 305 306 299 289 282 285 292 300 305 306 304 301 303 305 307 307 306 306 306 307 308 307 305 302 299 296 294 294 294 295 296 296 297 298 298 298 298 298 298 297 297 296 295 294 294 293 292 291 290 289 288 287 286 285 284
290 288 287 286 285 286 289 291 293 295 296 295 294 295 294 293 292 291 290 288 288 289 291 292 292 292 293 296 299 301 305 311 309 296 286 284 287 292 299 304 306 305 303 304 307 309 308 308 308 308 309 309 308 306 303 300 298 296 295 296 296 297 297 298 298 298 298 299 299 299 299 299 298 297 296 295 295 294 293 292 291 290 290 289 287 286
311 308 307 306 300 297 296 293 291 290 290 290 291 291 291 289 286 283 281 279 279 281 283 284 285 287 291 294 297 299 303 306 302 292 286 287 291 295 298 302 305 305 304 306 308 310 309 307 306 306 307 307 308 308 306 304 301 299 297 297 297 297 297 297 298 298 300 300 300 300 300 300 299 299 298 298 297 296 295 294 293 293 292 291 289 288
327 325 325 320 314 310 307 301 296 292 289 286 285 285 285 283 281 277 272 272 274 276 276 277 280 286 290 291 293 295 299 300 295 289 287 288 290 293 296 302 306 308 307 308 308 309 307 304 303 304 306 309 312 313 311 307 303 298 296 295 295 296 297 299 300 301 302 302 302 302 301 301 300 300 299 299 298 297 296 296 295 295 294 293 292 290
301 303 302 301 302 305 307 303 299 294 291 287 285 283 282 281 278 275 271 272 274 274 272 273 277 282 286 288 290 294 296 295 292 290 290 289 287 288 295 303 309 312 313 312 311 309 306 303 303 305 309 314 317 316 309 302 296 293 293 294 296 298 301 303 304 305 304 304 303 302 302 301 301 300 300 299 299 298 297 297 297 296 296 294 293 291
289 289 289 289 291 293 292 289 286 285 286 288 287 283 280 276 273 272 271 272 272 271 269 269 271 275 281 287 291 294 294 292 291 293 295 294 290 291 298 307 312 316 319 317 315 312 309 306 307 310 313 315 312 307 301 296 295 294 296 298 301 303 305 307 307 307 305 304 303 302 302 301 301 300 300 300 299 299 298 298 298 298 297 295 293 291
290 289 288 289 289 290 289 286 283 280 281 286 286 282 278 272 270 269 270 271 270 267 265 267 269 273 279 287 293 294 292 290 291 298 303 305 301 300 305 309 312 315 320 322 320 316 312 310 310 310 311 308 304 301 299 299 300 301 303 305 306 308 308 308 308 306 305 304 303 302 302 302 301 300 300 300 299 299 299 299 300 299 298 296 294 292
295 295 295 294 294 295 296 295 293 289 285 285 283 280 276 272 270 269 269 269 268 266 264 266 268 271 275 281 287 289 285 286 291 303 309 309 304 301 305 307 308 311 317 320 320 316 313 311 309 308 307 305 303 302 303 304 305 306 307 308 308 308 309 309 308 306 305 305 304 303 302 302 301 301 301 301 301 300 300 300 300 299 298 297 295 293
299 299 298 297 297 298 299 298 297 293 290 287 284 280 276 274 272 271 270 269 268 267 265 266 267 268 269 269 268 269 274 281 288 298 305 305 300 298 301 303 304 307 310 309 303 297 300 303 304 304 305 305 305 305 305 306 307 307 307 308 307 308 309 309 308 307 306 306 305 304 303 303 302 303 303 303 303 303 302 301 300 299 298 296 295 293
301 300 299 297 295 294 294 293 292 291 291 291 289 286 282 278 276 275 273 272 269 267 265 265 265 265 266 265 265 267 272 277 284 292 299 299 297 297 299 301 302 304 305 303 295 287 282 288 296 301 304 304 304 304 305 306 306 306 307 307 307 308 309 309 308 307 307 306 306 305 305 305 305 305 305 305 304 303 302 300 299 298 296 295 294 293
300 300 298 297 295 294 293 292 293 294 295 297 297 295 290 284 279 277 274 272 269 266 264 263 263 264 265 266 267 269 272 276 281 288 294 296 296 297 298 299 300 301 303 301 297 291 285 286 291 298 301 303 303 302 303 304 305 306 307 306 306 307 308 308 308 307 306 306 305 305 306 307 307 307 307 306 305 303 302 301 299 297 295 294 293 293
299 299 298 299 299 298 298 299 300 302 305 306 305 300 293 286 279 275 271 269 268 266 266 265 265 265 266 267 269 272 275 278 282 287 290 292 294 296 297 296 296 298 299 297 296 294 291 290 291 294 298 301 301 301 301 303 304 306 306 305 305 305 306 307 307 307 306 305 304 304 305 307 307 307 306 306 305 303 302 300 298 296 294 293 292 291
299 299 300 301 302 303 304 307 309 312 311 309 306 301 292 285 278 273 269 266 264 264 264 264 265 266 267 268 271 273 276 280 284 286 287 287 289 291 291 290 290 292 292 292 291 291 292 292 293 293 294 296 298 300 302 304 305 306 305 305 305 305 305 305 305 305 305 304 303 303 304 304 305 304 304 304 303 301 299 298 297 296 295 294 292 289
297 298 300 302 304 306 308 311 313 311 306 304 299 294 290 284 278 273 270 267 266 265 265 264 264 265 266 268 270 273 277 281 283 284 284 284 284 283 283 283 284 284 284 284 286 288 290 291 293 293 292 291 292 296 301 305 306 306 304 304 305 304 304 304 304 303 303 302 301 301 302 302 301 301 301 301 301 300 299 298 298 298 298 297 295 291
295 296 298 300 303 306 308 308 307 305 301 297 292 289 288 285 282 279 277 276 275 274 274 273 272 271 269 269 270 273 277 280 282 283 283 283 282 280 278 278 279 279 277 277 279 282 285 287 290 292 292 290 290 292 296 301 304 303 303 303 303 303 302 302 302 302 301 299 298 298 299 299 298 299 299 300 300 300 300 300 300 300 300 298 296 293
293 295 296 299 303 305 303 300 299 299 297 294 293 292 292 291 290 289 288 287 285 284 284 284 283 282 280 279 279 279 281 283 284 284 284 284 283 281 278 276 276 277 277 276 275 276 276 278 280 284 288 291 292 293 295 296 298 299 301 303 303 301 300 300 300 299 297 296 295 295 296 297 298 298 299 299 299 298 297 298 298 299 298 297 296 294
293 294 295 299 301 301 297 295 294 294 295 295 295 295 294 294 295 294 294 294 294 293 293 293 292 291 290 289 288 287 286 285 286 286 286 285 284 282 280 276 275 276 277 276 275 273 272 272 275 278 281 285 289 291 293 293 293 296 299 301 300 299 299 299 298 296 295 294 293 293 295 297 298 297 297 297 296 295 294 294 295 295 295 294 293 293
294 295 297 300 300 297 295 294 294 294 295 295 295 295 296 298 300 301 300 300 299 297 296 295 295 295 294 291 289 287 287 287 288 288 287 286 285 284 282 279 277 277 277 276 274 272 271 271 273 276 278 280 283 286 288 288 290 292 294 293 293 294 296 297 295 294 294 293 293 293 294 295 295 295 295 294 293 292 292 292 292 292 293 291 289 287
294 296 298 298 298 297 296 295 295 294 293 294 296 297 300 302 303 303 303 302 300 299 299 299 299 298 297 295 293 292 291 292 292 292 292 291 289 287 285 282 280 278 277 275 273 272 271 271 272 273 276 278 281 283 285 286 287 288 288 287 290 293 296 295 294 294 294 293 293 294 293 293 293 293 293 292 292 292 291 290 290 289 288 287 285 282
290 291 291 292 293 294 295 294 293 292 292 294 296 298 299 300 300 300 300 299 299 299 299 300 300 299 297 296 296 297 297 297 296 296 295 295 293 291 288 286 284 282 279 275 273 273 273 272 271 271 273 275 276 278 282 284 286 286 285 285 287 291 293 294 294 295 294 293 292 292 292 291 291 291 292 291 291 291 290 289 289 287 284 282 280 279
289 290 291 291 293 294 294 294 296 298 300 302 302 301 300 300 299 298 297 296 297 297 299 299 299 297 295 294 296 299 301 301 300 299 297 296 294 292 290 288 286 285 282 276 272 273 275 274 273 271 272 273 273 275 278 281 283 284 284 284 284 283 284 288 292 294 294 292 291 290 290 290 291 291 291 290 290 289 289 288 287 285 282 280 278 276
298 301 301 298 296 297 298 299 300 302 303 303 302 301 300 301 301 300 297 295 296 297 297 298 298 296 294 294 297 300 302 303 302 300 297 295 293 291 289 288 286 285 282 277 273 271 272 273 274 276 276 274 272 272 275 277 280 282 284 284 283 282 281 284 287 289 290 290 290 289 290 290 291 292 290 289 289 288 287 286 285 284 282 280 277 275
302 304 301 298 297 296 297 298 301 302 301 301 301 301 301 302 303 301 298 295 294 295 296 297 295 292 291 294 298 301 302 302 302 301 299 297 296 294 292 290 288 285 283 279 276 273 270 270 272 275 278 277 275 273 273 274 277 280 282 284 284 284 284 285 285 285 286 287 288 288 290 290 290 288 287 287 287 287 285 283 281 279 280 279 277 275
291 293 294 294 295 296 297 298 300 300 299 299 300 301 302 303 303 301 299 296 295 295 297 297 293 290 289 293 296 297 299 299 300 300 300 299 298 297 295 294 291 288 285 282 278 275 272 271 270 271 272 274 276 276 275 274 275 276 279 282 284 284 284 284 284 284 284 284 284 286 288 289 288 286 285 286 286 286 286 284 281 279 278 278 277 277
286 288 291 293 295 297 298 298 299 299 297 297 298 300 302 303 301 298 296 296 296 295 296 295 293 291 290 290 291 292 293 294 295 297 298 298 298 297 296 295 292 290 287 285 281 277 274 273 271 268 266 266 269 273 275 275 275 275 277 279 281 281 281 282 284 284 284 283 283 285 286 285 283 283 284 285 286 286 286 285 283 281 280 280 279 280
284 286 289 291 293 295 295 296 297 296 294 295 295 297 299 300 299 295 294 294 293 292 291 290 289 288 288 287 288 289 289 290 291 293 294 296 297 298 296 295 293 291 289 287 284 281 278 276 272 268 264 260 261 265 270 273 274 275 276 276 277 277 279 281 283 284 284 284 284 285 285 283 280 279 279 280 282 284 285 286 285 285 284 283 282 281
282 284 285 288 289 290 291 293 294 293 292 293 294 295 296 298 298 296 294 293 290 287 284 283 283 283 285 286 287 288 288 289 289 290 291 293 294 295 295 294 294 293 291 290 288 285 283 281 279 274 268 261 258 259 263 268 272 274 275 274 274 275 277 280 282 284 284 285 285 286 285 283 281 279 278 277 280 284 286 287 287 286 286 284 283 281
279 280 281 283 284 286 289 290 290 290 290 291 292 293 295 296 296 295 294 291 287 284 282 280 279 279 281 283 285 286 286 286 286 287 289 290 292 292 291 292 292 291 291 292 292 292 291 290 289 286 282 272 262 258 259 263 268 273 275 275 275 276 277 279 282 284 285 286 286 287 286 285 284 282 281 281 283 286 288 288 287 287 286 285 284 282
Height
802 802 803 804 805 806 807 808 809 810 810 811 812 812 813 813 813 813 813 814 815 815 816 817 817 817 817 817 817 817 816 816 815 815 814 813 813 813 813 812 812 812 812 813 813 813 813 813 812 812 812 812 812 811 811 811 811 811 811 811 811 811 811 811 811 811 811 811 811 811 811 811 811 811 811 811 810 810 810 810 810 809 809 809 809 809
802 803 803 804 805 806 807 808 808 809 810 810 811 811 812 812 812 813 813 813 814 815 815 816 816 816 816 816 816 816 815 815 814 813 813 812 812 812 811 811 811 811 812 812 812 812 812 811 811 811 811 811 810 810 810 810 810 810 810 810 810 810 810 810 810 810 810 810 810 810 810 810 810 809 809 809 809 808 808 808 808 808 808 808 808 808
801 802 803 804 805 806 806 807 808 808 809 810 810 811 811 811 812 812 813 813 814 814 814 814 814 815 814 815 814 814 814 813 813 812 812 811 811 811 811 811 811 811 811 811 811 811 810 810 810 810 810 809 809 809 809 809 809 809 809 808 808 808 808 808 808 808 808 808 808 808 808 808 808 808 808 808 808 807 807 807 807 807 806 807 807 807
801 802 803 803 804 805 806 807 808 808 809 810 810 810 811 811 812 812 812 813 813 813 813 813 813 813 813 813 813 813 813 812 812 811 811 810 810 810 810 810 810 810 810 810 810 809 809 809 809 809 808 808 808 808 808 808 808 808 808 807 807 807 807 807 807 807 807 807 807 807 807 807 807 806 806 806 806 806 805 805 805 805 805 805 805 805
801 801 802 803 804 805 806 807 808 808 809 810 810 811 811 811 811 811 812 812 812 812 812 812 812 812 812 812 812 812 812 811 811 810 810 810 809 809 809 809 809 809 809 809 808 808 808 808 808 808 807 807 807 807 807 807 807 806 806 806 806 806 806 806 806 806 806 806 806 806 805 805 805 805 804 804 804 804 804 803 803 803 803 803 803 803
801 802 802 803 804 805 806 807 808 809 809 810 810 810 810 810 811 811 811 811 811 811 811 811 811 811 811 811 811 811 810 810 810 809 809 809 808 808 808 808 808 808 808 808 807 807 807 807 807 806 806 806 806 806 806 805 805 805 805 805 805 805 805 805 804 804 804 804 804 804 804 803 803 803 803 803 802 802 802 802 802 802 802 802 802 801
801 802 803 803 804 805 806 807 808 808 809 809 809 809 809 810 810 810 810 810 810 809 809 810 810 810 810 810 810 810 809 809 808 808 808 808 808 807 807 807 807 807 806 806 806 806 806 806 805 805 805 805 805 805 805 805 804 804 804 804 804 803 803 803 803 803 803 803 803 802 802 802 802 801 801 801 801 800 800 800 800 800 800 800 800 800
801 802 803 803 804 805 806 806 807 807 808 808 808 808 808 809 809 809 809 809 809 809 809 809 809 809 809 809 809 808 808 808 808 807 807 807 807 806 806 805 805 805 805 805 805 805 805 805 804 804 804 804 804 804 804 803 803 803 803 803 802 802 802 802 802 801 801 801 801 801 800 800 800 800 799 799 799 799 799 799 799 799 798 798 798 798
802 803 803 803 804 805 805 806 806 806 806 807 807 807 808 808 808 808 808 808 808 808 808 808 808 808 808 808 808 807 807 807 807 807 806 806 805 805 804 804 804 804 804 804 804 804 804 804 804 803 803 803 803 803 803 802 802 802 801 801 801 800 800 800 800 800 800 799 799 799 799 798 798 798 798 798 798 798 797 797 797 797 797 797 797 796
803 803 804 804 804 805 805 805 805 805 806 806 806 806 807 807 807 807 807 807 807 807 807 807 807 807 807 807 807 806 806 806 806 806 805 805 804 804 803 803 803 803 803 803 803 803 803 803 803 802 802 802 802 801 801 801 800 800 799 799 799 799 798 798 798 798 798 798 798 798 798 797 797 797 797 797 796 796 796 796 796 795 795 795 795 794
803 804 804 804 804 805 805 805 805 805 805 805 805 806 806 806 806 806 806 806 806 806 806 806 806 806 806 806 806 805 805 805 805 805 804 804 803 803 803 803 803 802 802 802 802 802 802 801 801 801 800 800 800 799 799 799 798 798 798 798 797 797 797 797 797 797 797 797 796 796 796 796 796 796 795 795 795 795 794 794 794 794 794 793 793 793
803 804 804 804 804 804 804 804 804 804 804 805 805 805 805 805 805 805 805 805 805 806 806 806 805 805 805 805 805 805 805 804 804 803 803 803 803 802 802 802 801 801 801 801 800 800 800 800 799 799 799 798 798 798 797 797 796 796 796 796 796 796 796 796 796 796 795 795 795 795 795 795 795 794 794 794 793 793 793 793 793 792 792 792 791 791
803 803 804 804 804 804 804 803 803 803 803 804 804 804 804 804 805 805 805 805 805 805 805 805 805 805 805 805 804 804 804 803 803 802 802 802 802 801 801 800 800 800 799 799 799 798 798 798 798 797 797 796 796 796 795 795 794 794 794 794 794 794 794 794 794 794 794 794 794 794 794 793 793 793 793 792 792 792 791 791 791 790 790 790 789 789
803 803 803 803 803 803 803 803 803 803 803 803 803 803 804 804 804 804 804 805 804 804 804 804 804 804 804 804 804 804 803 803 802 801 801 801 801 800 800 799 798 798 798 798 797 797 797 796 796 795 795 794 794 794 793 793 793 793 793 793 793 793 793 793 793 793 793 793 793 793 792 792 792 791 791 791 790 790 789 789 789 788 788 788 787 787
803 803 803 803 802 802 802 802 802 802 802 803 803 803 803 803 804 804 804 804 804 804 804 804 803 803 803 803 803 803 803 802 801 800 800 800 799 799 798 798 797 797 796 796 795 795 795 794 794 793 793 793 793 792 792 792 792 792 792 793 793 793 793 793 793 792 792 792 791 791 791 790 790 790 789 789 788 788 788 787 787 787 786 786 785 785
802 802 802 801 801 801 801 801 801 802 802 802 803 803 803 803 803 803 804 804 803 803 803 803 803 803 803 803 803 802 802 801 800 799 799 798 798 798 797 797 796 795 794 794 793 793 793 793 792 792 792 792 791 791 791 791 791 792 792 792 792 792 792 791 791 791 790 790 790 789 789 789 788 788 788 787 787 786 786 785 785 785 784 784 783 783
802 801 801 800 800 800 800 801 801 802 802 802 803 803 803 803 803 803 803 803 803 803 803 803 802 802 801 801 801 801 801 800 799 798 797 797 796 796 796 795 794 793 792 792 792 792 791 791 791 791 791 791 790 790 790 791 791 791 791 791 790 790 790 790 789 789 789 788 788 788 788 787 787 786 786 785 785 784 784 783 783 783 782 782 781 781
801 800 800 800 800 800 800 801 801 801 802 802 802 802 802 803 803 803 803 803 803 802 802 802 802 802 801 800 800 800 800 800 798 797 796 795 794 794 795 794 793 792 791 790 790 790 790 790 790 790 790 790 790 790 790 790 790 789 789 789 789 789 788 788 788 788 787 787 787 786 786 785 785 784 784 783 783 783 782 782 781 781 780 780 779 779
800 799 799 799 799 800 800 801 801 801 801 802 802 802 802 802 802 802 802 802 802 802 802 801 801 801 800 800 800 800 800 799 798 796 795 794 793 793 793 793 792 790 790 789 789 789 789 789 789 789 789 789 789 789 788 788 788 788 788 788 787 787 787 787 786 786 785 785 785 784 784 783 783 783 782 782 781 780 780 779 779 778 778 778 777 777
799 799 799 799 799 800 800 800 801 801 801 801 801 801 801 801 801 801 801 801 801 801 801 801 800 800 800 799 799 799 799 798 798 796 794 793 792 791 791 791 790 789 788 788 788 788 788 788 788 788 788 788 788 787 787 787 787 786 786 786 786 785 785 785 784 784 784 783 783 783 782 782 781 781 780 780 779 778 778 778 777 777 776 775 775 775
799 799 799 799 799 800 800 800 800 800 801 801 801 801 801 801 801 801 801 801 801 800 800 800 800 799 799 799 798 798 798 798 798 796 794 792 790 790 790 790 789 788 788 787 787 787 787 787 787 787 786 786 786 786 785 785 785 785 784 784 784 784 783 783 783 783 782 782 781 781 780 780 779 779 778 778 777 777 776 775 775 774 774 773 773 772
799 799 799 799 799 799 800 800 800 800 800 800 800 800 800 800 800 800 800 800 800 800 799 799 799 799 798 798 798 798 798 798 797 796 794 792 789 788 789 789 789 788 787 786 786 786 786 786 785 785 785 785 784 784 784 783 783 783 783 783 783 782 782 782 781 781 780 780 779 779 778 778 778 777 776 776 775 774 774 773 773 772 772 771 771 770
799 799 799 799 799 799 799 799 800 800 800 800 800 800 800 800 800 800 799 799 799 799 799 798 798 798 798 797 797 797 797 797 796 795 794 791 789 788 788 788 788 787 786 785 785 785 784 784 783 783 783 783 783 782 782 782 782 781 781 781 781 780 780 780 779 779 779 778 778 777 777 776 775 775 774 773 773 772 772 771 771 770 770 769 768 768
798 798 798 799 799 799 799 799 799 799 799 799 799 799 799 799 799 799 799 799 798 798 798 798 798 797 797 796 796 796 795 795 795 795 793 791 789 788 788 788 787 786 784 784 784 783 783 782 782 781 781 781 781 780 780 780 780 780 780 779 779 779 778 778 778 778 777 777 776 775 775 774 773 773 772 772 771 770 770 769 768 768 768 767 766 766
798 798 798 798 799 799 799 799 799 799 799 799 799 798 798 798 798 798 798 798 798 798 798 798 797 796 796 795 795 794 794 794 794 794 793 791 788 787 787 787 787 785 783 783 782 782 781 780 779 779 779 779 779 779 779 778 778 778 778 778 778 777 777 777 776 776 775 774 774 773 772 772 771 771 770 769 769 768 768 767 767 766 765 765 764 763
798 798 798 798 798 798 798 798 798 798 798 798 798 798 798 798 798 798 798 798 798 798 798 797 797 796 795 795 794 794 793 793 793 793 792 790 788 787 786 786 786 785 783 781 781 781 780 779 778 778 778 778 777 777 777 777 777 777 777 776 776 776 775 775 774 773 773 772 772 771 770 770 769 768 768 768 767 766 766 765 764 764 763 763 762 761
798 798 798 798 798 798 798 798 798 798 798 798 798 798 798 797 797 797 796 797 797 797 797 797 796 795 794 794 794 793 793 793 793 792 791 790 788 787 786 786 785 784 783 781 780 779 779 778 777 776 776 776 776 776 776 776 776 775 775 775 774 774 773 773 772 771 771 770 769 769 768 768 767 767 766 765 765 764 764 763 763 762 761 761 760 759
797 797 797 797 797 797 797 797 797 797 797 797 797 797 797 797 796 796 796 796 796 796 796 796 795 795 794 793 793 793 792 792 792 791 791 790 788 787 785 785 785 784 783 780 778 777 777 776 775 775 774 774 774 774 774 774 774 774 774 773 773 772 772 771 770 769 768 768 768 767 766 766 765 765 764 763 763 763 762 761 761 760 759 758 758 756
797 797 796 796 796 796 796 796 796 796 796 796 796 796 796 796 795 795 795 795 795 795 795 795 794 794 793 793 792 792 791 791 790 790 790 789 788 786 785 785 784 784 783 780 777 775 774 774 774 773 773 773 773 773 773 773 773 772 772 771 771 770 769 769 768 767 767 766 765 765 764 764 763 763 762 762 761 760 760 759 759 758 757 756 755 754
796 796 796 796 796 795 795 795 795 795 795 795 795 795 795 795 794 794 794 794 794 794 794 793 793 793 793 792 791 791 790 789 789 789 789 788 787 786 785 785 784 784 783 782 778 775 773 772 773 773 773 773 772 772 772 771 771 770 770 769 768 768 768 767 766 765 765 764 763 763 763 762 761 761 760 759 759 758 758 757 757 756 755 754 753 752
795 795 795 795 794 794 794 794 794 794 794 794 794 794 794 793 793 793 793 793 793 793 793 793 792 792 792 792 791 790 789 788 788 788 788 788 786 785 785 784 784 783 783 783 782 778 773 771 770 771 772 771 771 770 770 769 769 768 768 767 766 766 765 765 764 764 763 762 762 761 760 760 759 758 758 757 757 756 756 755 755 754 753 752 751 750
795 794 794 794 793 793 793 793 793 793 793 793 793 793 792 792 792 792 792 792 792 792 792 791 791 791 791 791 791 789 788 788 788 788 788 787 786 785 784 784 783 783 783 783 783 782 778 773 769 769 769 769 769 768 768 768 767 767 766 765 765 764 763 763 763 762 761 760 759 759 758 758 757 756 756 755 755 754 753 753 753 752 752 751 749 748
794 793 793 793 793 793 793 792 792 792 792 792 791 791 791 791 791 791 791 791 791 791 791 790 790 790 790 790 789 788 787 787 787 787 787 787 785 784 783 783 783 782 782 782 782 782 780 776 772 769 768 768 767 767 766 766 766 765 765 764 763 762 762 761 761 760 759 758 757 757 756 755 755 754 753 753 753 752 752 751 751 751 750 749 748 747
793 793 792 792 792 792 792 791 791 791 791 790 790 790 790 790 790 790 790 790 790 790 790 789 789 789 789 788 788 787 786 786 786 786 786 786 785 783 783 782 782 782 781 781 780 779 778 777 774 772 768 766 765 765 765 765 764 764 763 763 762 761 760 759 759 758 757 756 755 754 753 753 752 752 751 751 750 750 749 749 749 749 748 748 747 746
792 792 792 791 791 791 791 790 790 790 790 789 789 789 789 789 789 789 789 789 789 789 788 788 788 788 788 787 786 785 784 784 785 785 785 785 784 783 782 782 781 781 781 780 779 778 777 775 774 773 770 767 764 763 763 763 763 762 762 761 760 759 758 758 757 756 755 754 753 752 751 751 750 749 749 748 748 748 748 747 747 747 746 746 745 744
791 791 791 791 790 790 790 789 789 789 789 789 789 789 788 788 788 788 788 788 788 788 788 787 787 787 786 786 785 784 783 783 783 784 784 784 783 783 782 781 780 780 780 779 778 778 776 774 773 772 771 768 765 762 761 761 762 761 760 759 759 758 757 756 756 755 754 753 751 750 750 749 748 748 747 747 747 746 746 745 745 744 744 743 743 743
791 790 790 790 790 789 789 789 789 789 789 789 788 788 788 788 788 788 787 787 787 786 786 786 786 785 785 784 784 783 782 782 782 782 782 783 783 782 781 780 779 779 779 778 778 777 776 774 772 770 769 768 766 763 761 760 759 759 758 758 757 756 755 754 754 753 753 751 750 749 748 748 747 746 745 745 744 744 743 743 742 742 741 741 740 740
790 790 790 789 789 789 789 788 788 788 788 788 788 788 788 787 787 786 786 786 785 785 784 784 784 783 783 783 782 782 781 780 780 780 781 781 781 781 780 779 778 778 778 778 777 776 775 773 772 769 768 766 765 763 762 760 759 758 756 756 755 755 754 753 753 752 751 750 749 748 747 746 745 744 743 743 742 742 741 740 739 739 739 738 738 737
790 789 789 789 789 789 788 788 788 788 788 788 787 787 787 786 786 785 785 784 784 783 783 783 782 782 781 781 780 780 779 779 779 779 779 779 779 779 779 778 777 776 776 776 776 775 774 773 771 769 767 765 763 762 761 760 759 757 755 754 753 752 752 752 751 750 750 748 748 746 745 744 743 743 742 741 740 740 739 738 737 737 737 736 735 734
789 789 788 788 788 788 788 788 788 787 787 787 786 786 786 785 785 784 784 783 783 783 782 782 781 780 780 779 779 778 778 778 777 777 777 777 777 777 777 776 776 775 775 774 774 773 773 771 770 768 767 765 763 761 759 758 758 757 756 753 751 750 749 750 749 748 748 747 746 744 743 742 742 741 740 739 738 738 737 736 735 735 734 734 733 732
788 788 788 788 788 788 787 787 787 787 786 786 785 785 785 784 783 783 783 782 782 781 781 781 780 779 778 778 778 777 777 776 776 776 776 776 776 776 775 775 774 774 773 773 772 771 771 770 768 767 766 764 763 761 758 757 756 756 755 753 751 748 748 748 747 747 746 745 744 743 742 741 740 739 738 738 737 736 735 735 734 733 732 732 731 731
788 787 787 787 787 787 786 786 786 786 785 785 784 784 783 783 783 782 782 781 781 780 780 779 779 778 777 776 776 775 775 775 774 774 774 774 774 774 773 773 773 772 772 771 770 769 769 768 767 766 764 763 762 760 757 755 754 754 754 752 750 748 746 745 745 745 744 743 742 741 741 739 738 737 736 735 734 734 733 733 732 731 730 729 729 728
787 787 786 786 786 786 786 785 785 785 784 784 783 783 783 782 782 781 781 780 780 779 779 778 778 777 776 775 774 773 773 773 773 773 773 773 773 772 772 772 771 771 770 770 768 768 767 766 765 764 763 762 761 759 756 753 752 752 751 751 750 748 745 742 742 742 742 741 740 740 739 738 737 735 734 733 732 731 731 730 729 728 728 727 726 725
786 786 786 785 785 785 785 784 784 784 783 783 783 782 782 781 781 781 780 780 779 778 778 778 777 776 775 774 773 772 772 772 772 772 772 771 771 771 770 770 770 769 769 768 767 766 765 764 763 762 761 760 759 757 755 753 751 749 749 748 748 747 745 742 740 740 740 739 738 738 737 736 735 733 732 731 730 729 728 728 727 726 725 724 723 723
785 785 785 784 784 784 784 783 783 783 783 782 782 781 781 780 780 780 779 779 778 778 777 777 776 775 774 773 772 772 771 770 770 770 770 770 770 770 769 769 768 768 767 767 766 765 764 762 761 760 759 758 757 755 753 751 749 748 747 746 746 745 743 741 740 739 738 737 736 735 734 734 733 732 730 728 727 727 726 725 724 723 722 721 721 720
784 784 784 784 783 783 783 783 782 782 782 781 781 780 780 779 779 779 778 778 777 777 776 776 775 775 773 772 772 771 770 769 769 768 768 768 768 768 768 767 767 766 765 765 764 763 762 761 759 758 757 756 754 753 751 750 748 747 744 744 743 742 741 739 738 738 737 735 734 733 732 732 731 730 728 726 725 723 723 722 721 720 719 718 718 717
784 783 783 783 783 783 782 782 782 781 781 780 779 779 779 778 778 778 777 777 776 776 775 775 774 774 773 772 771 770 769 768 768 767 767 767 766 766 766 765 765 764 763 763 762 761 760 759 758 757 756 755 752 750 748 748 747 745 743 742 741 740 738 737 736 735 735 733 732 731 730 730 729 728 726 724 722 721 720 719 719 718 717 716 716 715
783 783 783 782 782 782 781 781 781 780 780 779 778 778 778 778 777 777 776 776 776 775 775 774 773 773 772 771 770 770 769 768 767 766 765 765 764 764 764 763 763 762 761 760 759 758 758 756 756 755 754 753 751 748 745 745 744 743 742 741 740 738 737 735 733 733 733 731 730 729 729 728 727 725 723 722 720 718 717 717 716 716 715 714 713 713
783 782 782 782 781 781 780 780 780 779 778 778 777 777 777 776 776 776 775 775 775 774 774 773 773 772 771 770 769 768 768 767 766 765 764 763 763 763 762 761 761 760 759 758 757 756 755 753 753 752 751 751 749 746 744 742 742 741 740 739 738 736 734 733 731 731 730 729 728 727 727 726 725 723 722 720 717 715 714 714 713 713 713 712 711 710
782 781 781 781 780 780 779 779 779 778 778 777 777 776 775 775 775 775 774 774 773 773 773 772 771 770 769 768 768 767 767 766 765 763 763 762 762 761 760 760 759 758 757 756 755 754 752 751 749 748 748 747 747 745 743 741 739 739 738 737 736 735 733 731 729 728 728 727 726 725 724 723 723 722 720 718 716 713 712 711 710 710 710 709 708 708
781 781 780 780 780 779 779 778 778 778 777 776 776 775 774 774 773 773 773 773 772 772 771 771 770 769 768 767 767 766 765 764 763 762 761 761 761 760 759 758 758 757 756 755 753 752 751 749 747 745 744 744 744 743 742 740 738 737 736 734 733 733 731 729 728 727 726 725 724 723 723 721 720 720 719 717 715 712 710 708 708 707 707 706 706 704